Orbital Elements at Epoch 2459200.5 (2020-Dec-17.0) TDB
Reference: JPL 24 (heliocentric ecliptic J2000)
Element | Value | Uncertainty (1-sigma) | Units |
e | .195128317024222 | 4.4839e-08 | |
a | 2.400614270126842 | 9.1323e-09 | au |
q | 1.932186447772661 | 1.0593e-07 | au |
i | 2.40588246160163 | 3.197e-06 | deg |
node | 79.70724792062975 | 0.00010802 | deg |
peri | 286.0786527319567 | 0.0001083 | deg |
M | 237.2388668211616 | 8.8522e-06 | deg |
tp | 2459663.776626855149 (2022-Mar-25.27662686) | 3.4832e-05 | TDB |
period | 1358.569942694232 3.72 | 7.7523e-06 2.122e-08 | d yr |
n | .2649845169443909 | 1.5121e-09 | deg/d |
Q | 2.869042092481024 | 1.0914e-08 | au |
|
| | Orbit Determination Parameters
Additional Information
|